Starlink 3375

operational
NORAD ID: 51114 Int'l Des: 2022-005 Owner: SPXS Country: US Constellation: starlink
LEOCIRCULAR

关于 Starlink 3375

正在加载描述...

实时位置

正在加载3D地球...

即将过境

高度历史

Altitude vs Time

uPlot chart will show altitude changes over time

两行轨道根数

1 51114U 22005L 25257.57406229 -.00000505 00000-0 -13623-4 0 9998
2 51114 53.2195 359.7357 0001344 99.5214 260.5931 15.08834010202291
Epoch: Sep 14, 2025 • Age: 21 hours

当前状态

高度 539.9 km
速度 7.60 km/s
星下点 18.66°N, 142.47°W
发射日期 Jan 19, 2022
运行时间 3.6 years
类型 internet

技术详情

分类 Payload
质量 297.00 kg
干质量 275.00 kg
总质量 297.00 kg
长度 0.20 m
直径 2.80 m
跨度 9.00 m
形状 Box + pan
制造商 SPXS
平台类型 Starlink
阶段状态 In Orbit
所有者/国家 SPXS/US

大型星座

Loading constellations...